Weather Roundup
Issued by NWS

Home | Current Version | Previous Version | Graphics & Text | Print | Product List | Glossary Off
Versions: 1 2 3 4 5 6 7 8 9 10 11 12 13 14 15 16 17 18 19 20 21 22 23 24 25 26 27 28 29 30 31 32 33 34 35 36 37 38 39 40 41 42 43 44 45 46 47 48 49 50

734
NZUS93 KARX 290959
HRRWXR

CURRENT HOURLY OBSERVATIONS ACROSS
MUCH OF THE UPPER MISSISSIPPI VALLEY
NATIONAL WEATHER SERVICE LA CROSSE WI
500 AM CDT FRI APR 29 2016


...SOUTHEAST MINNESOTA...


CITY           SKY/WX    TMP DP  RH WIND       PRES   REMARKS
ROCHESTER      CLOUDY    37  37 100 N5        30.13S FOG     WCI  33
ROCHESTER/MAYO CLOUDY    38  38 100 NW3       30.14R
WINONA         CLOUDY    39  36  87 N3        30.15R
AUSTIN         CLOUDY    37  34  87 CALM      30.14R
ALBERT LEA     NOT AVBL
DODGE CENTER   CLOUDY    36  36 100 N6        30.14R WCI  31
PRESTON        MOCLDY    34  33  95 N5        30.13R FOG     WCI  30
OWATONNA       PTCLDY    36  34  93 CALM      30.15R
FARIBAULT      NOT AVBL
$$

...ELSEWHERE IN MINNESOTA...


CITY           SKY/WX    TMP DP  RH WIND       PRES   REMARKS
MINNEAPOLIS    CLOUDY    35  35 100 CALM      30.17R
INTNL FALLS    CLOUDY    34  29  82 N6        30.19R WCI  29
DULUTH         CLEAR     31  25  78 N5        30.15R WCI  26
RED WING       CLEAR     36  34  93 CALM      30.15R
REDWOOD FALLS  CLOUDY    37  35  92 CALM      30.15F
MANKATO        CLOUDY    39  36  87 N3        30.16R
WORTHINGTON    CLOUDY    38  36  92 N5        30.13S WCI  34
FAIRMONT       CLOUDY    39  30  70 N7        30.13S WCI  34
$$

...SOUTHWEST WISCONSIN...


CITY           SKY/WX    TMP DP  RH WIND       PRES   REMARKS
LA CROSSE      CLOUDY    40  36  86 NW7       30.13R
PRAIRIE DU CHI CLOUDY    40  37  86 CALM      30.11R
BOSCOBEL       CLOUDY    42  39  89 CALM      30.11R
LONE ROCK      NOT AVBL
PLATTEVILLE    CLOUDY    40  39  96 N6        30.08R
FORT MC COY    CLOUDY    37  37  98 N3        30.12R
MAUSTON-NEW LI NOT AVBL
VIROQUA        CLOUDY    37  37 100 CALM      30.10R
WIS DELLS      CLOUDY    37  35  94 N3        30.08S
$$

...ELSEWHERE IN WISCONSIN...


CITY           SKY/WX    TMP DP  RH WIND       PRES   REMARKS
MILWAUKEE      LGT RAIN  40  38  93 NE5       30.05R
MADISON        CLOUDY    39  37  92 N9        30.07S WCI  33
GREEN BAY      LGT RAIN  41  36  82 NE6       30.08S
EAU CLAIRE     CLOUDY    40  38  93 N3        30.14S
BLACK RVR FLS  CLOUDY    38  38 100 N5        30.12R WCI  35
MEDFORD        DRIZZLE   36  36 100 CALM      30.11S
WAUSAU         CLOUDY    40  35  83 N6        30.09S
WIS RAPIDS     CLOUDY    39  34  82 N8        30.11F WCI  33
MARSHFIELD     CLOUDY    39  35  86 N5        30.10S
RICE LAKE      CLOUDY    37  32  81 W3        30.17R
$$

...NORTHEAST IOWA...


CITY           SKY/WX    TMP DP  RH WIND       PRES   REMARKS
WATERLOO       CLOUDY    42  39  89 N3        30.11R
DUBUQUE        CLOUDY    40  39  97 N7        30.08R
DECORAH        CLOUDY    39  39 100 N5        30.11R
MASON CITY     CLOUDY    41  40  96 N8        30.13S
CHARLES CITY   CLOUDY    41  41 100 NE6       30.12R
OELWEIN        CLOUDY    41  41 100 N6        30.10R
$$

...ELSEWHERE IN IOWA...


CITY           SKY/WX    TMP DP  RH WIND       PRES   REMARKS
DES MOINES     CLOUDY    47  42  83 N6        30.10F
IOWA CITY      CLOUDY    45  42  89 NW5       30.13R
FORT DODGE     CLOUDY    41  36  81 CALM      30.12S
MARSHALLTOWN   CLOUDY    44  42  93 N6        30.12R
CEDAR RAPIDS   CLOUDY    43  42  97 N3        30.10R
$$

...NORTHERN ILLINOIS...


CITY           SKY/WX    TMP DP  RH WIND       PRES   REMARKS
CHICAGO-OHARE  CLOUDY    42  41  96 N10       30.02S
CHICAGO-MIDWAY CLOUDY    45  41  86 NW6       30.02S FOG
MOLINE         CLOUDY    46  42  86 N6        30.09R FOG
ROCKFORD       CLOUDY    42  39  89 N7        30.07S
PEORIA         MOCLDY    51  48  89 N5        30.05R
$$

NOTE: "FAIR" INDICATES FEW OR NO CLOUDS BELOW 12,000 FEET WITH NO
SIGNIFICANT WEATHER AND/OR OBSTRUCTIONS TO VISIBILITY. WIND
SPEEDS ARE IN MILES-PER-HOUR.




USA.gov is the U.S. government's official web portal to all federal, state and local government web resources and services.